Location: Kergonan
(48.2337°N, 4.5518°W)
Time: 06:53:28
(UTC+00:00)

FALCON 9 DEB - Pass Details

Date: 18 January 2020
Orbit: 429 x 444 km, 53.0° (Epoch: 24 February)

Event Time Altitude Azimuth Distance (km) Brightness Sun altitude
Exits shadow 05:54:34 37° 9° (N) 711 4.1 -20.8°
Drops below altitude 10° 05:57:32 10° 64° (ENE) 1,568 6.7 -20.3°
Sets 05:59:46 0° 72° (ENE) 2,441 8.0 -19.9°
